Location: Borovka
(49.7741°N, 14.5280°E)
Time: 01:39:08
(UTC+00:00)

BlueWalker 3 - Pass Details

Date: 21 January 2026
Orbit: 451 x 461 km, 53.2° (Epoch: 13 February)

Event Time Altitude Azimuth Distance (km) Brightness Sun altitude
Rises 17:22:10 0° 205° (SSW) 2,445 6.0 -16.4°
Reaches altitude 10° 17:24:37 10° 188° (S) 1,576 4.7 -16.8°
Enters shadow 17:27:11 21° 142° (SE) 1,066 3.3 -17.2°
